Weather History for Olney-Noble, IL

Change the Weather History Date:

Monday, January 21, 2013

  Actual Average (KEVV) Record (KEVV)
Temperature  
Mean Temperature 20 °F 32 °F  
Max Temperature 26 °F 41 °F 71 °F (1986)
Min Temperature 14 °F 24 °F -15 °F (1984)
Degree Days  
Heating Degree Days 45 33  
Month to date heating degree days 688  
Since 1 July heating degree days 2460  
Cooling Degree Days 0 0  
Month to date cooling degree days 0  
Year to date cooling degree days 0  
Moisture  
Dew Point 9 °F    
Average Humidity 63    
Maximum Humidity 86    
Minimum Humidity 46    
Precipitation  
Precipitation 0.00 in 0.10 in 2.62 in (1959)
Month to date precipitation 2.06  
Year to date precipitation 2.06  
Snow  
Snow 0.00 in 0.10 in 0.80 in (1979)
Month to date snowfall 2.2  
Since 1 July snowfall 5.7  
Snow Depth -    
Sea Level Pressure  
Sea Level Pressure 30.29 in    
Wind  
Wind Speed 14 mph (WNW)    
Max Wind Speed 22 mph    
Max Gust Speed 29 mph    
Visibility 10 miles    
Events      
T = Trace of Precipitation, MM = Missing Value Source: NWS Daily Summary

Daily Weather History Graph

Daily Weather History Graph

Search for Another Location

Airport:

Trip Planner

Search our weather history database for the weather conditions in past years. The results will help you decide how hot, cold, wet, or windy it might be!

Date:

Astronomy

Jan. 21, 2013 Rise Set
Actual Time 7:06 AM CST 5:02 PM CST
Civil Twilight 6:37 AM CST 5:30 PM CST
Nautical Twilight 6:05 AM CST 6:03 PM CST
Astronomical Twilight 5:33 AM CST 6:35 PM CST
Moon 12:42 PM CST (1/21) 2:34 AM CST (1/21)
Length of Visible Light 10h 53m
Length of Day
9h 55m
Waxing Gibbous, 75% of the Moon is Illuminated
Jan 21
Waxing Gibbous
Jan 26
Full
Feb 3
Last Quarter
Feb 10
New
Feb 17
First Quarter

Hourly Weather History & Observations

Time (CST) Temp. Windchill Dew Point Humidity Pressure Visibility Wind Dir Wind Speed Gust Speed Precip Events Conditions
12:15 AM 26.6 °F 16.8 °F 17.6 °F 69% 30.22 in 10.0 mi WNW 10.4 mph - N/A   Overcast
12:35 AM 26.6 °F 18.2 °F 17.6 °F 69% 30.23 in 10.0 mi NW 8.1 mph - N/A   Overcast
12:55 AM 26.6 °F 15.7 °F 17.6 °F 69% 30.23 in 10.0 mi NW 12.7 mph - N/A   Overcast
1:15 AM 24.8 °F 14.0 °F 17.6 °F 74% 30.23 in 10.0 mi NW 11.5 mph - N/A   Overcast
1:35 AM 24.8 °F 13.4 °F 17.6 °F 74% 30.24 in 10.0 mi NW 12.7 mph 17.3 mph N/A   Overcast
1:55 AM 24.8 °F 14.6 °F 17.6 °F 74% 30.24 in 10.0 mi NW 10.4 mph - N/A   Overcast
2:15 AM 24.8 °F 12.9 °F 17.6 °F 74% 30.25 in 10.0 mi NW 13.8 mph - N/A   Scattered Clouds
2:35 AM 24.8 °F 12.9 °F 17.6 °F 74% 30.25 in 10.0 mi NW 13.8 mph 19.6 mph N/A   Clear
2:55 AM 23.0 °F 13.1 °F 17.6 °F 80% 30.24 in 10.0 mi NW 9.2 mph - N/A   Clear
3:15 AM 23.0 °F 11.1 °F 17.6 °F 80% 30.24 in 10.0 mi NW 12.7 mph 18.4 mph N/A   Scattered Clouds
3:35 AM 23.0 °F 11.1 °F 17.6 °F 80% 30.24 in 10.0 mi NW 12.7 mph - N/A   Scattered Clouds
3:55 AM 21.2 °F - 17.6 °F 86% 30.24 in 10.0 mi Calm Calm - N/A   Scattered Clouds
4:15 AM 21.2 °F 10.1 °F 15.8 °F 80% 30.25 in 10.0 mi NW 10.4 mph 20.7 mph N/A   Clear
4:35 AM 21.2 °F 10.1 °F 17.6 °F 86% 30.25 in 10.0 mi WNW 10.4 mph - N/A   Clear
4:55 AM 21.2 °F 7.3 °F 17.6 °F 86% 30.25 in 10.0 mi West 16.1 mph - N/A   Mostly Cloudy
5:15 AM 21.2 °F 5.6 °F 15.8 °F 80% 30.26 in 10.0 mi WNW 20.7 mph 25.3 mph N/A   Scattered Clouds
5:35 AM 21.2 °F 6.8 °F 15.8 °F 80% 30.26 in 10.0 mi WNW 17.3 mph - N/A   Scattered Clouds
5:55 AM 21.2 °F 7.3 °F 14.0 °F 74% 30.26 in 10.0 mi WNW 16.1 mph - N/A   Clear
6:15 AM 19.4 °F 5.5 °F 14.0 °F 80% 30.27 in 10.0 mi WNW 15.0 mph - N/A   Clear
6:35 AM 21.2 °F 8.9 °F 15.8 °F 80% 30.27 in 10.0 mi WNW 12.7 mph 19.6 mph N/A   Clear
6:55 AM 21.2 °F 7.3 °F 12.2 °F 68% 30.27 in 10.0 mi WNW 16.1 mph - N/A   Clear
7:15 AM 21.2 °F 7.8 °F 14.0 °F 74% 30.26 in 10.0 mi WNW 15.0 mph - N/A   Clear
7:35 AM 21.2 °F 7.8 °F 14.0 °F 74% 30.26 in 10.0 mi WNW 15.0 mph 18.4 mph N/A   Scattered Clouds
7:55 AM 21.2 °F 7.8 °F 12.2 °F 68% 30.26 in 10.0 mi WNW 15.0 mph 24.2 mph N/A   Scattered Clouds
8:15 AM 21.2 °F 8.3 °F 12.2 °F 68% 30.26 in 10.0 mi West 13.8 mph 21.9 mph N/A   Mostly Cloudy
8:35 AM 21.2 °F 8.3 °F 12.2 °F 68% 30.27 in 10.0 mi WNW 13.8 mph 18.4 mph N/A   Overcast
8:55 AM 21.2 °F 7.8 °F 14.0 °F 74% 30.28 in 10.0 mi West 15.0 mph - N/A   Overcast
9:15 AM 21.2 °F 7.8 °F 10.4 °F 63% 30.28 in 10.0 mi NW 15.0 mph 20.7 mph N/A   Mostly Cloudy
9:35 AM 21.2 °F 6.0 °F 10.4 °F 63% 30.29 in 10.0 mi NW 19.6 mph 25.3 mph N/A   Clear
9:55 AM 21.2 °F 6.0 °F 8.6 °F 58% 30.29 in 10.0 mi NW 19.6 mph 26.5 mph N/A   Clear
10:15 AM 21.2 °F 6.0 °F 10.4 °F 63% 30.29 in 10.0 mi WNW 19.6 mph 24.2 mph N/A   Clear
10:35 AM 23.0 °F 8.7 °F 10.4 °F 59% 30.29 in 10.0 mi WNW 18.4 mph 25.3 mph N/A   Clear
10:55 AM 24.8 °F 11.5 °F 10.4 °F 54% 30.29 in 10.0 mi NW 17.3 mph 25.3 mph N/A   Scattered Clouds
11:15 AM 21.2 °F 7.3 °F 8.6 °F 58% 30.29 in 10.0 mi WNW 16.1 mph 25.3 mph N/A   Scattered Clouds
11:35 AM 23.0 °F 8.0 °F 8.6 °F 54% 30.28 in 10.0 mi West 20.7 mph 24.2 mph N/A   Scattered Clouds
11:55 AM 24.8 °F 10.0 °F 6.8 °F 46% 30.28 in 10.0 mi WNW 21.9 mph 27.6 mph N/A   Clear
12:15 PM 23.0 °F 10.1 °F 6.8 °F 50% 30.28 in 10.0 mi WNW 15.0 mph 26.5 mph N/A   Clear
12:55 PM 24.8 °F 11.5 °F 8.6 °F 50% 30.27 in 10.0 mi WNW 17.3 mph 27.6 mph N/A   Clear
1:15 PM 24.8 °F 10.7 °F 6.8 °F 46% 30.27 in 10.0 mi WNW 19.6 mph 26.5 mph N/A   Clear
1:35 PM 24.8 °F 10.7 °F 6.8 °F 46% 30.28 in 10.0 mi NW 19.6 mph 25.3 mph N/A   Clear
1:55 PM 24.8 °F 11.1 °F 6.8 °F 46% 30.28 in 10.0 mi NW 18.4 mph 25.3 mph N/A   Clear
2:15 PM 23.0 °F 8.0 °F 6.8 °F 50% 30.29 in 10.0 mi NW 20.7 mph 28.8 mph N/A   Clear
2:35 PM 21.2 °F 6.4 °F 6.8 °F 54% 30.29 in 10.0 mi WNW 18.4 mph 21.9 mph N/A   Clear
2:55 PM 21.2 °F 6.4 °F 6.8 °F 54% 30.30 in 10.0 mi WNW 18.4 mph 24.2 mph N/A   Clear
3:15 PM 21.2 °F 6.0 °F 6.8 °F 54% 30.30 in 10.0 mi WNW 19.6 mph 26.5 mph N/A   Clear
3:35 PM 19.4 °F 5.0 °F 5.0 °F 54% 30.30 in 10.0 mi NW 16.1 mph 24.2 mph N/A   Clear
3:55 PM 19.4 °F 5.0 °F 5.0 °F 54% 30.31 in 10.0 mi WNW 16.1 mph - N/A   Clear
4:15 PM 19.4 °F 6.0 °F 6.8 °F 58% 30.31 in 10.0 mi WNW 13.8 mph 20.7 mph N/A   Clear
4:35 PM 19.4 °F 4.1 °F 3.2 °F 49% 30.31 in 10.0 mi WNW 18.4 mph 23.0 mph N/A   Clear
4:55 PM 19.4 °F 6.0 °F 5.0 °F 54% 30.31 in 10.0 mi WNW 13.8 mph 20.7 mph N/A   Clear
5:15 PM 17.6 °F 1.7 °F 3.2 °F 53% 30.32 in 10.0 mi WNW 18.4 mph 23.0 mph N/A   Clear
5:35 PM 17.6 °F 2.7 °F 3.2 °F 53% 30.32 in 10.0 mi WNW 16.1 mph - N/A   Scattered Clouds
5:55 PM 17.6 °F 5.0 °F 5.0 °F 58% 30.32 in 10.0 mi NW 11.5 mph 18.4 mph N/A   Mostly Cloudy
6:15 PM 17.6 °F 4.3 °F 5.0 °F 58% 30.33 in 10.0 mi WNW 12.7 mph - N/A   Mostly Cloudy
6:35 PM 17.6 °F 2.7 °F 5.0 °F 58% 30.33 in 10.0 mi WNW 16.1 mph 20.7 mph N/A   Scattered Clouds
6:55 PM 17.6 °F 2.7 °F 1.4 °F 49% 30.33 in 10.0 mi WNW 16.1 mph 21.9 mph N/A   Mostly Cloudy
7:15 PM 17.6 °F 3.7 °F 1.4 °F 49% 30.33 in 10.0 mi NW 13.8 mph - N/A   Scattered Clouds
7:55 PM 17.6 °F 5.7 °F 3.2 °F 53% 30.34 in 10.0 mi WNW 10.4 mph - N/A   Mostly Cloudy
8:15 PM 17.6 °F 3.7 °F 1.4 °F 49% 30.34 in 10.0 mi WNW 13.8 mph - N/A   Scattered Clouds
8:35 PM 17.6 °F 3.2 °F 1.4 °F 49% 30.34 in 10.0 mi WNW 15.0 mph - N/A   Clear
8:55 PM 15.8 °F 0.3 °F 1.4 °F 53% 30.35 in 10.0 mi NW 16.1 mph 19.6 mph N/A   Clear
9:15 PM 15.8 °F 3.4 °F 3.2 °F 58% 30.35 in 10.0 mi WNW 10.4 mph - N/A   Clear
9:35 PM 15.8 °F 2.7 °F 3.2 °F 58% 30.35 in 10.0 mi WNW 11.5 mph - N/A   Clear
9:55 PM 15.8 °F 2.7 °F 3.2 °F 58% 30.35 in 10.0 mi WNW 11.5 mph - N/A   Clear
10:15 PM 15.8 °F 1.4 °F 1.4 °F 53% 30.35 in 10.0 mi WNW 13.8 mph - N/A   Clear
10:35 PM 15.8 °F 1.4 °F 3.2 °F 58% 30.36 in 10.0 mi NW 13.8 mph 17.3 mph N/A   Clear
10:55 PM 15.8 °F -0.2 °F 3.2 °F 58% 30.35 in 10.0 mi WNW 17.3 mph - N/A   Clear
11:15 PM 15.8 °F 2.7 °F 3.2 °F 58% 30.35 in 10.0 mi NW 11.5 mph 16.1 mph N/A   Clear
11:35 PM 14.0 °F -0.8 °F 1.4 °F 57% 30.35 in 10.0 mi NW 13.8 mph 19.6 mph N/A   Clear
11:55 PM 14.0 °F 1.2 °F 1.4 °F 57% 30.36 in 10.0 mi NW 10.4 mph - N/A   Clear